TimePST,TemperatureF,Dew PointF,Humidity,Sea Level PressureIn,VisibilityMPH,Wind Direction,Wind SpeedMPH,Gust SpeedMPH,PrecipitationIn,Events,Conditions,WindDirDegrees,DateUTC
12:53 AM,33.1,26.1,75,30.19,10.0,NNE,3.5,-,N/A,,Overcast,30,2014-02-05 08:53:00
1:53 AM,33.1,26.1,75,30.19,10.0,Calm,Calm,-,N/A,,Overcast,0,2014-02-05 09:53:00
2:53 AM,34.0,26.1,73,30.18,10.0,SSE,3.5,-,N/A,,Overcast,160,2014-02-05 10:53:00
3:53 AM,32.0,26.1,79,30.19,10.0,Calm,Calm,-,N/A,,Overcast,0,2014-02-05 11:53:00
4:53 AM,30.9,26.1,82,30.20,10.0,Calm,Calm,-,N/A,,Overcast,0,2014-02-05 12:53:00
5:53 AM,30.0,24.1,79,30.21,10.0,Calm,Calm,-,N/A,,Scattered Clouds,0,2014-02-05 13:53:00
6:53 AM,28.9,24.1,82,30.22,10.0,Calm,Calm,-,N/A,,Overcast,0,2014-02-05 14:53:00
7:53 AM,30.0,25.0,82,30.21,10.0,Calm,Calm,-,N/A,,Scattered Clouds,0,2014-02-05 15:53:00
8:53 AM,34.0,25.0,70,30.21,10.0,Calm,Calm,-,N/A,,Clear,0,2014-02-05 16:53:00
9:53 AM,37.0,26.1,65,30.21,10.0,North,4.6,-,N/A,,Clear,10,2014-02-05 17:53:00
10:53 AM,39.0,27.0,62,30.19,10.0,NW,4.6,-,N/A,,Clear,320,2014-02-05 18:53:00
11:53 AM,43.0,27.0,53,30.16,10.0,Calm,Calm,-,N/A,,Clear,0,2014-02-05 19:53:00
12:53 PM,45.0,25.0,46,30.12,10.0,Calm,Calm,-,N/A,,Clear,0,2014-02-05 20:53:00
1:53 PM,45.0,25.0,46,30.09,10.0,NNE,5.8,-,N/A,,Clear,20,2014-02-05 21:53:00
2:53 PM,46.0,25.0,44,30.08,10.0,NNE,4.6,-,N/A,,Overcast,30,2014-02-05 22:53:00
3:53 PM,46.0,24.1,42,30.06,10.0,Calm,Calm,-,N/A,,Overcast,0,2014-02-05 23:53:00
4:53 PM,45.0,24.1,44,30.05,10.0,Calm,Calm,-,N/A,,Overcast,0,2014-02-06 00:53:00
5:53 PM,45.0,26.1,48,30.04,10.0,WSW,3.5,-,N/A,,Overcast,250,2014-02-06 01:53:00
6:53 PM,44.1,28.0,53,30.04,10.0,South,3.5,-,N/A,,Overcast,190,2014-02-06 02:53:00
7:53 PM,43.0,27.0,53,30.03,10.0,Calm,Calm,-,N/A,,Overcast,0,2014-02-06 03:53:00
8:53 PM,42.1,27.0,55,30.02,10.0,SSE,3.5,-,N/A,,Overcast,150,2014-02-06 04:53:00
9:53 PM,39.9,28.9,65,30.01,10.0,Calm,Calm,-,N/A,,Overcast,0,2014-02-06 05:53:00
10:53 PM,41.0,28.9,62,29.99,10.0,Calm,Calm,-,N/A,,Overcast,0,2014-02-06 06:53:00
11:53 PM,39.9,28.9,65,29.98,10.0,North,3.5,-,N/A,,Overcast,10,2014-02-06 07:53:00